Temp
-12 -13 -13 -12 -11 -11 -11 -11 -12 -12 -12 -12 -12 -12 -12 -12 -12 -12 -12 -11 -11 -11 -11 -11 -11 -11 -11 -11 -11 -11 -11 -11 -11 -11 -12 -12 -12 -12 -12 -12 -12 -12 -12
-12 -12 -12 -12 -12 -12 -11 -11 -11 -11 -12 -11 -11 -12 -12 -12 -11 -12 -12 -11 -11 -11 -11 -11 -11 -11 -11 -11 -11 -11 -12 -11 -11 -12 -12 -12 -12 -12 -12 -12 -12 -12 -12
-14 -12 -12 -12 -12 -12 -12 -11 -11 -11 -11 -11 -11 -11 -11 -11 -11 -11 -11 -11 -11 -11 -11 -11 -11 -11 -11 -11 -11 -11 -11 -11 -11 -12 -12 -12 -12 -12 -12 -12 -12 -12 -12
-16 -15 -12 -11 -11 -11 -12 -12 -12 -12 -12 -12 -12 -12 -11 -11 -11 -11 -11 -11 -11 -11 -11 -11 -11 -11 -11 -11 -11 -11 -11 -11 -12 -12 -12 -12 -12 -12 -12 -12 -12 -12 -12
-16 -16 -15 -12 -11 -11 -11 -11 -12 -12 -12 -12 -11 -11 -11 -11 -11 -11 -11 -11 -11 -11 -11 -12 -11 -11 -11 -11 -11 -11 -11 -12 -12 -12 -12 -12 -12 -12 -12 -12 -12 -12 -12
-17 -17 -16 -16 -13 -11 -11 -11 -12 -12 -12 -12 -11 -11 -11 -11 -11 -11 -11 -11 -11 -11 -11 -11 -11 -11 -11 -11 -11 -12 -12 -12 -12 -12 -12 -12 -12 -12 -12 -12 -12 -12 -12
-20 -20 -20 -18 -16 -12 -11 -11 -11 -11 -12 -11 -11 -11 -11 -11 -11 -12 -11 -11 -11 -11 -11 -12 -12 -11 -11 -11 -12 -12 -12 -12 -12 -12 -12 -12 -12 -12 -12 -12 -12 -13 -12
-20 -20 -20 -20 -18 -13 -12 -11 -11 -11 -11 -11 -11 -11 -11 -11 -11 -11 -11 -11 -11 -11 -11 -11 -11 -11 -11 -12 -12 -12 -12 -12 -12 -13 -12 -12 -12 -12 -12 -12 -12 -12 -12
-20 -20 -20 -20 -18 -15 -12 -12 -11 -11 -11 -11 -11 -11 -11 -12 -11 -11 -11 -12 -11 -11 -11 -11 -11 -11 -12 -12 -12 -12 -12 -12 -12 -12 -13 -12 -12 -12 -12 -12 -12 -12 -12
-20 -20 -20 -20 -18 -14 -13 -12 -11 -12 -12 -11 -11 -11 -11 -11 -11 -11 -11 -12 -11 -11 -12 -11 -11 -12 -12 -12 -12 -12 -12 -12 -12 -13 -13 -12 -12 -12 -12 -12 -12 -12 -12
-20 -20 -20 -19 -17 -14 -12 -12 -12 -12 -12 -11 -11 -11 -11 -11 -11 -12 -12 -11 -12 -11 -11 -12 -12 -12 -12 -12 -12 -12 -12 -12 -12 -12 -12 -12 -12 -12 -12 -12 -12 -12 -12
-18 -19 -19 -18 -15 -14 -13 -12 -12 -12 -12 -11 -11 -11 -11 -11 -12 -12 -12 -12 -12 -12 -11 -12 -12 -12 -12 -12 -12 -12 -12 -12 -12 -12 -12 -12 -12 -12 -12 -12 -12 -13 -12
-18 -18 -18 -16 -14 -13 -13 -12 -12 -12 -12 -11 -11 -11 -12 -12 -12 -12 -12 -12 -11 -11 -12 -12 -12 -12 -12 -12 -12 -12 -12 -12 -12 -12 -12 -13 -12 -13 -12 -12 -12 -12 -13
-18 -17 -16 -14 -13 -13 -13 -13 -13 -12 -12 -12 -11 -12 -12 -12 -12 -12 -12 -11 -12 -12 -12 -12 -12 -12 -12 -13 -13 -12 -12 -12 -13 -13 -13 -13 -12 -12 -12 -12 -12 -12 -12
-16 -15 -14 -14 -14 -13 -13 -13 -12 -12 -12 -12 -12 -12 -13 -12 -12 -12 -12 -12 -12 -12 -12 -12 -12 -12 -13 -13 -13 -13 -13 -13 -13 -13 -13 -12 -12 -12 -12 -12 -13 -13 -13
-14 -14 -14 -13 -13 -13 -13 -12 -13 -13 -12 -12 -12 -13 -13 -12 -12 -12 -12 -12 -12 -12 -12 -12 -12 -13 -13 -13 -13 -13 -13 -13 -13 -13 -12 -12 -13 -13 -13 -13 -13 -13 -13
-14 -13 -13 -13 -13 -13 -13 -13 -13 -13 -13 -12 -13 -13 -12 -12 -12 -12 -12 -12 -12 -12 -12 -12 -13 -13 -13 -13 -13 -13 -13 -13 -13 -13 -13 -13 -13 -13 -13 -13 -13 -13 -13
-12 -13 -13 -13 -13 -13 -13 -13 -12 -13 -13 -13 -12 -12 -12 -12 -12 -12 -12 -12 -12 -12 -12 -12 -12 -12 -12 -13 -13 -13 -13 -13 -13 -13 -13 -13 -13 -13 -13 -13 -13 -13 -13
-13 -13 -13 -13 -13 -13 -13 -12 -12 -12 -12 -12 -12 -12 -12 -12 -12 -12 -12 -12 -12 -12 -12 -12 -12 -12 -12 -12 -13 -13 -13 -13 -12 -12 -13 -13 -13 -13 -13 -13 -13 -13 -13
-13 -13 -13 -13 -12 -12 -12 -12 -12 -12 -12 -12 -12 -12 -13 -12 -12 -12 -11 -11 -11 -12 -11 -11 -11 -12 -12 -12 -12 -12 -12 -12 -12 -13 -13 -13 -13 -13 -13 -13 -13 -13 -13
-13 -12 -13 -13 -12 -11 -11 -12 -12 -12 -12 -12 -13 -13 -13 -12 -12 -11 -11 -11 -11 -11 -11 -11 -11 -12 -12 -12 -12 -12 -12 -13 -13 -13 -13 -13 -13 -13 -13 -13 -13 -14 -13
-12 -13 -12 -12 -12 -12 -12 -12 -12 -12 -12 -13 -13 -12 -12 -12 -12 -12 -11 -11 -11 -11 -11 -11 -11 -12 -12 -12 -12 -12 -13 -13 -13 -13 -13 -13 -13 -13 -14 -14 -13 -14 -14
-12 -12 -12 -12 -12 -12 -12 -12 -12 -13 -13 -12 -12 -12 -12 -12 -12 -11 -11 -11 -11 -11 -11 -11 -11 -12 -12 -12 -12 -12 -12 -13 -13 -13 -13 -14 -14 -14 -14 -14 -14 -14 -14
-12 -12 -12 -12 -12 -13 -13 -12 -13 -13 -12 -12 -12 -12 -12 -12 -11 -11 -11 -11 -11 -12 -12 -12 -12 -12 -12 -12 -12 -12 -12 -13 -13 -13 -13 -13 -13 -14 -14 -14 -14 -14 -14
-12 -12 -12 -13 -13 -13 -13 -12 -13 -12 -12 -12 -12 -12 -12 -12 -12 -12 -12 -12 -12 -12 -12 -12 -12 -12 -12 -12 -12 -13 -13 -13 -13 -13 -14 -14 -14 -14 -14 -14 -14 -14 -14
-13 -13 -13 -13 -13 -13 -13 -13 -13 -12 -12 -12 -12 -12 -12 -12 -12 -12 -12 -12 -12 -12 -12 -12 -12 -13 -13 -13 -13 -14 -14 -14 -14 -14 -14 -14 -14 -14 -14 -14 -14 -15 -14
Height
5679 5684 5690 5698 5705 5713 5720 5727 5737 5745 5751 5757 5762 5766 5770 5772 5775 5778 5779 5778 5779 5779 5778 5776 5775 5773 5770 5769 5767 5764 5761 5758 5755 5749 5747 5744 5741 5738 5734 5732 5729 5728 5728
5660 5665 5673 5680 5690 5697 5706 5715 5723 5733 5741 5745 5751 5755 5762 5764 5767 5769 5771 5770 5771 5771 5769 5768 5767 5766 5764 5762 5760 5757 5755 5753 5750 5745 5743 5740 5738 5735 5732 5729 5728 5727 5726
5641 5646 5655 5664 5671 5680 5691 5703 5713 5721 5728 5735 5740 5746 5751 5754 5758 5760 5761 5762 5763 5762 5761 5761 5759 5758 5757 5755 5754 5751 5749 5746 5743 5740 5737 5736 5734 5732 5730 5728 5727 5726 5725
5620 5628 5636 5646 5656 5665 5676 5690 5700 5709 5717 5724 5730 5737 5742 5747 5748 5751 5753 5753 5754 5753 5753 5753 5752 5751 5749 5749 5747 5745 5743 5740 5738 5734 5734 5731 5731 5730 5729 5727 5726 5725 5725
5600 5607 5615 5625 5636 5649 5661 5673 5686 5697 5706 5714 5722 5728 5733 5736 5740 5742 5744 5744 5744 5745 5745 5745 5744 5744 5743 5742 5740 5739 5737 5734 5732 5730 5729 5727 5728 5728 5727 5726 5726 5725 5724
5579 5585 5592 5603 5616 5632 5647 5660 5674 5687 5696 5703 5712 5719 5724 5727 5731 5735 5735 5735 5735 5736 5737 5737 5737 5737 5736 5735 5734 5732 5730 5728 5727 5725 5724 5724 5726 5726 5725 5724 5724 5724 5724
5563 5568 5574 5583 5595 5614 5633 5649 5664 5677 5686 5695 5703 5708 5713 5719 5722 5724 5725 5726 5728 5729 5730 5729 5730 5731 5730 5729 5727 5725 5724 5723 5721 5721 5721 5722 5722 5722 5721 5721 5721 5721 5723
5549 5553 5560 5569 5580 5598 5620 5640 5655 5668 5679 5687 5694 5699 5705 5711 5713 5715 5717 5719 5720 5722 5722 5723 5724 5724 5722 5722 5720 5719 5718 5717 5716 5715 5716 5718 5719 5719 5718 5719 5719 5719 5721
5537 5543 5551 5559 5569 5587 5610 5630 5645 5658 5670 5678 5684 5691 5697 5701 5704 5708 5710 5712 5713 5715 5716 5717 5717 5716 5717 5716 5714 5713 5711 5711 5710 5710 5712 5714 5716 5717 5717 5717 5718 5718 5719
5526 5533 5541 5549 5560 5580 5602 5621 5638 5650 5660 5668 5676 5682 5688 5693 5697 5700 5703 5705 5707 5708 5709 5710 5710 5710 5709 5709 5707 5706 5706 5705 5705 5706 5709 5711 5713 5714 5715 5715 5716 5717 5716
5512 5520 5530 5541 5555 5577 5595 5614 5628 5642 5651 5661 5668 5676 5681 5686 5690 5693 5697 5698 5700 5701 5702 5703 5704 5703 5702 5702 5700 5701 5700 5700 5701 5703 5705 5708 5710 5712 5713 5713 5714 5715 5715
5496 5508 5522 5534 5551 5573 5593 5609 5622 5635 5644 5653 5661 5669 5675 5680 5684 5687 5689 5692 5694 5695 5695 5697 5695 5696 5695 5695 5695 5695 5696 5696 5698 5700 5703 5705 5707 5709 5710 5711 5712 5713 5713
5495 5507 5521 5536 5555 5574 5592 5607 5618 5630 5639 5647 5656 5664 5669 5674 5678 5682 5684 5686 5688 5688 5689 5689 5689 5689 5690 5690 5690 5691 5692 5693 5692 5696 5700 5702 5704 5706 5707 5708 5710 5710 5711
5499 5512 5525 5542 5560 5577 5591 5604 5617 5625 5634 5643 5652 5658 5665 5669 5673 5676 5678 5680 5681 5681 5682 5682 5683 5684 5684 5685 5686 5688 5688 5689 5690 5693 5697 5699 5701 5703 5705 5706 5707 5708 5709
5507 5520 5535 5551 5566 5578 5590 5601 5612 5621 5630 5640 5648 5654 5660 5665 5669 5671 5673 5674 5675 5675 5676 5677 5678 5678 5680 5682 5683 5684 5686 5688 5689 5691 5695 5697 5698 5700 5702 5703 5704 5705 5706
5513 5531 5545 5556 5569 5581 5593 5603 5611 5620 5630 5638 5645 5651 5656 5661 5663 5665 5666 5668 5669 5670 5672 5673 5674 5676 5677 5679 5680 5683 5685 5686 5688 5690 5692 5694 5696 5697 5699 5700 5701 5702 5702
5520 5539 5553 5562 5573 5584 5594 5603 5611 5620 5627 5635 5641 5645 5650 5654 5657 5659 5661 5663 5664 5666 5668 5670 5671 5673 5675 5676 5678 5681 5683 5685 5687 5688 5690 5692 5694 5695 5696 5697 5698 5699 5699
5536 5549 5557 5568 5577 5586 5594 5600 5608 5618 5626 5632 5638 5642 5647 5650 5653 5655 5657 5659 5661 5663 5665 5667 5669 5671 5672 5675 5677 5679 5681 5683 5685 5687 5689 5691 5692 5693 5694 5695 5695 5696 5696
5545 5554 5564 5573 5580 5587 5596 5603 5611 5618 5624 5629 5635 5640 5643 5646 5649 5651 5654 5656 5658 5660 5663 5665 5667 5669 5671 5674 5676 5678 5680 5682 5684 5686 5688 5690 5691 5692 5692 5692 5692 5693 5694
5554 5560 5569 5576 5581 5585 5597 5606 5612 5618 5624 5629 5633 5637 5640 5643 5647 5649 5651 5653 5656 5659 5661 5664 5667 5669 5671 5674 5676 5678 5680 5682 5684 5686 5687 5688 5689 5689 5690 5690 5690 5691 5690
5562 5567 5575 5582 5586 5593 5602 5608 5613 5618 5623 5627 5631 5635 5639 5643 5645 5647 5649 5652 5654 5658 5661 5664 5666 5668 5670 5673 5675 5677 5679 5681 5683 5684 5686 5686 5687 5687 5687 5687 5687 5687 5687
5572 5575 5580 5586 5592 5599 5604 5608 5613 5617 5622 5627 5632 5636 5639 5642 5644 5647 5649 5652 5655 5658 5660 5663 5666 5668 5670 5672 5674 5676 5677 5679 5681 5682 5683 5684 5684 5685 5685 5684 5684 5684 5684
5575 5581 5586 5590 5595 5600 5605 5609 5614 5619 5625 5629 5633 5636 5639 5642 5645 5648 5651 5653 5655 5657 5660 5662 5665 5667 5669 5671 5672 5674 5676 5678 5679 5680 5681 5682 5682 5683 5683 5683 5683 5682 5682
5580 5584 5587 5593 5598 5602 5607 5612 5618 5622 5626 5630 5633 5636 5640 5643 5646 5649 5651 5653 5656 5658 5660 5662 5665 5667 5669 5671 5673 5674 5675 5677 5678 5679 5680 5680 5680 5680 5681 5681 5681 5680 5678
5584 5588 5592 5597 5601 5605 5610 5615 5619 5623 5627 5630 5634 5637 5640 5644 5647 5650 5652 5654 5656 5658 5660 5663 5665 5667 5669 5671 5673 5675 5676 5678 5679 5679 5679 5680 5679 5679 5678 5678 5677 5675 5674
5588 5591 5595 5599 5603 5608 5612 5616 5620 5624 5627 5630 5634 5637 5641 5644 5647 5649 5651 5653 5656 5658 5661 5663 5666 5668 5670 5671 5673 5674 5675 5676 5677 5677 5677 5677 5677 5676 5674 5673 5671 5670 5668
Wind_Speed
65 64 65 65 65 65 64 68 74 66 70 64 64 64 60 53 47 41 40 35 34 38 37 35 35 36 35 34 34 34 31 31 34 37 32 30 29 26 22 19 15 11 8
70 71 69 66 66 64 64 61 60 62 61 54 62 69 54 45 39 37 33 34 34 37 33 34 35 34 33 34 33 33 30 31 32 32 30 26 24 20 19 13 10 9 8
65 75 74 72 69 68 64 61 60 57 55 50 48 47 41 41 37 32 32 36 36 34 32 34 34 33 34 34 32 30 31 32 31 29 25 23 18 16 15 11 9 8 9
63 67 78 78 75 71 68 62 59 57 53 49 45 42 41 39 33 30 33 34 33 34 34 35 34 33 34 32 29 30 30 30 27 24 21 22 14 14 11 10 11 8 8
67 65 71 80 81 75 69 64 58 55 52 49 45 42 37 35 33 30 30 31 33 33 35 34 32 33 32 29 29 29 30 26 23 21 20 15 14 12 11 10 10 9 5
62 65 67 74 82 79 73 66 59 52 53 50 43 40 38 35 32 27 28 30 30 32 32 33 32 31 30 28 29 29 26 24 22 20 17 14 14 15 14 13 11 13 8
52 52 56 60 73 82 74 65 57 51 50 47 43 40 38 33 28 25 29 27 29 32 31 30 28 29 28 28 28 26 24 24 22 20 16 14 16 16 13 14 12 12 13
46 47 51 50 61 76 74 65 58 50 44 43 41 40 36 26 25 26 27 28 31 30 29 30 30 27 28 26 27 25 23 22 21 21 17 15 12 10 11 12 9 10 11
39 40 43 44 49 65 70 63 53 46 43 42 41 37 27 25 26 26 28 29 30 28 30 30 28 27 25 26 26 23 22 20 19 17 15 13 12 10 10 14 13 12 11
43 43 44 44 46 60 61 58 50 47 43 43 38 30 26 26 26 27 28 30 27 29 29 27 26 26 26 24 24 21 19 17 15 15 16 14 13 13 9 9 11 11 11
52 48 43 47 48 56 59 56 50 45 43 39 33 29 27 26 26 26 28 27 27 28 27 25 25 26 25 22 24 18 16 16 16 15 15 15 12 12 11 10 9 10 11
39 44 48 49 53 55 53 51 48 44 41 37 30 28 26 25 24 26 25 25 27 27 26 24 26 25 23 22 21 18 16 14 16 15 15 15 12 12 13 11 9 9 10
35 43 47 45 49 49 49 47 44 41 38 33 30 28 25 24 26 23 24 25 23 24 23 24 23 22 21 19 18 16 15 13 24 20 17 15 13 12 13 15 13 11 11
39 45 45 47 47 46 44 43 39 39 35 31 29 26 25 23 23 24 24 21 21 23 22 21 20 18 16 15 15 13 14 11 18 21 17 15 13 12 14 14 13 12 11
44 46 46 45 44 45 44 42 40 37 34 30 26 26 28 26 25 24 20 20 22 20 18 18 15 13 12 12 11 12 11 8 11 15 14 13 13 14 14 15 15 13 12
47 45 44 45 42 39 39 37 35 35 31 26 25 26 24 24 23 19 20 20 18 17 15 13 11 12 12 11 10 10 9 12 13 13 14 15 14 12 12 12 12 12 12
48 45 40 39 38 38 36 33 34 33 28 28 25 23 22 21 19 21 20 17 16 14 11 11 11 12 11 10 10 10 11 13 13 13 14 13 12 12 12 12 11 12 11
39 37 38 37 36 35 36 35 31 30 29 23 22 22 21 20 19 18 16 13 12 12 13 13 13 12 10 11 12 12 12 12 11 11 11 11 11 12 13 11 12 12 10
36 37 38 38 33 33 24 31 32 29 25 25 23 21 19 17 16 15 13 12 13 14 14 14 13 12 12 13 13 12 12 11 11 11 11 11 11 11 11 10 11 13 15
31 30 38 33 30 40 27 26 25 22 20 20 20 19 18 16 13 12 12 13 14 15 16 14 11 12 12 12 12 12 11 11 11 11 10 9 9 10 11 11 11 12 14
27 27 31 29 28 26 25 24 21 20 21 21 19 19 16 13 11 12 12 14 16 15 14 14 12 12 12 12 12 12 11 10 10 9 9 9 9 9 9 9 8 8 9
31 25 26 26 26 25 23 23 23 23 22 22 21 16 13 11 10 10 10 12 13 14 14 14 13 12 12 11 11 12 11 11 10 9 8 8 9 8 7 7 5 5 8
26 25 24 22 21 22 23 24 23 20 22 23 18 15 14 10 9 10 11 12 12 13 14 13 11 11 11 11 11 11 10 9 8 7 5 6 6 7 8 10 11 13 15
23 20 19 20 22 24 23 24 22 20 20 19 16 15 14 12 11 11 11 11 11 11 12 12 11 10 10 10 9 8 8 7 8 8 8 9 9 11 13 14 14 16 18
20 22 23 23 23 23 24 23 20 17 16 15 16 16 14 14 13 12 12 12 12 12 12 12 12 11 10 8 7 6 6 6 6 8 9 10 11 12 13 15 18 22 24
22 23 23 24 24 23 22 20 18 16 15 15 16 17 15 14 13 13 14 14 13 13 12 11 9 9 8 7 7 7 7 7 8 9 11 14 16 18 20 22 25 28 31
Wind_Direction
245 243 244 242 241 241 243 243 243 245 252 256 256 258 260 271 269 267 274 278 278 277 277 281 285 290 291 288 290 290 292 295 296 299 305 310 309 310 309 308 293 288 274
245 244 243 242 241 240 241 244 242 245 246 254 251 253 259 263 261 263 270 270 270 271 276 279 285 290 287 286 288 290 288 293 296 301 305 303 307 307 309 293 278 279 266
244 242 242 241 242 242 238 238 240 242 243 247 244 247 255 260 256 260 264 265 266 272 273 279 285 287 283 284 289 287 292 295 298 300 301 298 300 301 309 283 271 266 257
254 244 237 238 238 239 240 237 235 238 241 244 246 248 251 252 253 258 259 263 268 272 273 278 286 282 283 286 284 289 291 293 295 295 297 296 284 294 283 287 267 255 252
254 255 243 231 233 234 236 236 234 233 237 241 242 244 246 248 250 252 258 263 267 272 272 280 283 281 283 280 285 288 290 291 289 292 298 280 262 288 277 271 259 250 259
261 260 247 237 227 227 230 232 231 230 232 237 240 242 244 247 248 250 259 262 268 272 272 279 277 277 278 282 286 287 284 283 286 289 292 270 261 282 287 262 261 254 258
257 257 244 238 229 219 223 227 228 228 228 233 237 241 244 246 246 253 258 263 267 266 272 276 275 274 274 280 285 284 280 281 281 278 279 264 268 275 278 242 258 256 237
253 250 235 229 228 216 214 219 221 223 224 228 233 237 239 240 246 251 257 261 264 269 274 272 272 269 275 282 284 280 278 279 281 269 264 257 262 275 278 226 239 222 231
248 238 227 224 224 213 206 212 214 216 219 224 228 232 233 241 245 250 255 260 264 271 268 270 267 272 275 282 281 277 275 280 277 259 248 246 246 261 270 250 249 226 234
245 236 231 222 209 202 200 206 207 211 214 220 224 226 231 240 243 247 253 260 266 265 268 266 268 270 276 279 278 280 277 272 270 244 238 236 239 246 259 250 234 228 227
240 235 216 207 191 191 195 201 203 206 212 216 220 225 234 237 241 245 255 259 260 264 263 264 265 267 276 276 281 276 265 275 260 235 225 228 237 234 227 228 236 237 244
225 208 199 187 180 185 191 196 199 203 209 214 220 226 229 233 240 245 251 256 259 256 259 260 263 270 271 272 270 270 260 254 239 234 228 222 228 229 226 224 225 231 239
191 189 183 173 173 180 188 193 196 200 206 212 216 220 222 232 239 241 248 254 252 257 257 260 268 269 266 259 258 256 257 254 224 228 221 218 225 223 220 224 228 228 241
174 168 159 162 170 177 183 188 195 200 206 210 215 221 221 230 236 246 250 247 252 255 260 264 265 264 256 249 246 239 242 248 224 207 206 215 225 224 227 230 234 238 243
153 152 156 162 167 177 182 187 193 198 204 210 214 215 219 228 238 239 238 244 252 252 258 263 261 243 241 238 230 228 234 217 202 192 203 217 225 225 234 237 242 248 253
146 152 160 167 171 176 184 189 192 197 202 199 205 219 224 231 229 231 239 240 241 249 256 258 235 233 226 221 216 206 217 189 186 197 209 216 219 228 233 238 243 250 260
144 157 167 167 171 177 181 188 194 194 190 197 206 211 217 218 222 228 228 232 240 247 241 220 217 210 204 206 203 204 211 211 205 210 211 213 218 227 240 245 252 253 266
150 159 170 169 171 175 184 195 186 181 182 193 206 208 213 216 214 218 223 229 232 225 217 212 206 198 198 199 199 202 205 210 215 218 216 218 231 241 246 250 251 250 266
160 166 171 170 173 162 158 173 175 183 185 191 196 202 200 201 206 212 218 216 214 211 206 194 190 191 200 200 200 200 199 200 207 218 226 234 240 246 253 256 255 252 273
167 175 173 177 179 166 158 168 174 179 187 193 190 187 189 194 201 210 207 202 198 200 193 185 184 187 193 199 201 203 205 207 211 217 220 222 234 249 260 266 266 269 276
147 133 149 149 150 156 169 169 169 174 177 177 178 177 180 185 193 193 196 195 196 191 186 185 185 187 186 190 193 193 197 201 206 216 229 242 251 260 266 266 269 276 283
156 152 151 155 162 164 164 167 169 169 171 171 170 171 172 172 174 177 175 179 184 184 184 188 190 197 201 203 206 209 211 219 227 231 235 251 266 264 250 249 253 250 257
154 158 160 158 158 163 168 168 165 166 172 171 170 173 168 164 156 168 180 180 177 180 183 186 197 206 206 210 212 211 213 215 219 216 225 232 219 227 245 257 260 265 271
150 152 163 164 167 170 168 163 165 168 168 175 184 180 176 177 179 173 171 175 177 173 172 178 185 189 196 195 192 197 206 214 219 226 233 238 246 254 262 269 274 288 289
164 167 164 165 169 168 167 169 170 171 176 182 183 185 188 193 196 191 174 168 169 173 180 185 189 192 192 195 199 205 216 230 243 253 261 266 269 274 279 286 291 294 296
170 168 162 161 165 168 169 172 175 177 179 181 183 188 193 189 190 188 183 182 182 182 183 184 183 184 191 199 210 222 233 240 251 262 272 281 286 289 291 293 296 301 302